Preview of NWS' New Version of Forecast
This preview is not operational and should not be used for support decisions.

Regional Weather Roundup (RWR)

Issued by Gray - Portland, ME (GYX)

                            
000
ASUS41 KGYX 232210
RWRGYX
WEATHER ROUNDUP FOR MAINE AND NEW HAMPSHIRE
NATIONAL WEATHER SERVICE GRAY ME
600 PM EDT SUN JUN 23 2019

MEZ002-005-006-010-012-015-018-020-021-024-026-027-029-232300-
MAINE
  
CITY           SKY/WX    TMP DP  RH WIND       PRES   REMARKS
PORTLAND       FAIR      82  45  27 NW21G28   29.70S                  
SANFORD        FAIR      81  49  32 W15G23    29.73F                  
BAR HARBOR     RAIN      67  56  67 N17G24    29.64R                  
WISCASSET      FAIR      81  47  30 W8        29.68S                  
ROCKLAND       FAIR      80  51  36 NW14G22   29.64R                  
FRYEBURG       FAIR      80  45  28 W13G26    29.74S                  
LEWISTONAUBURN FAIR      81  48  31 NW17G23   29.70S                  
AUGUSTA        FAIR      79  49  34 W13G30    29.68S                  
WATERVILLE     FAIR      79  49  34 NW15G28   29.64S                  
BANGOR         LGT RAIN  73  52  47 N10       29.63R                  
GREENVILLE       N/A     71  48  43 NW15G31   29.66R                  
MILLINOCKET    PTSUNNY   72  51  47 W13G22    29.63R                  
HOULTON        FAIR      73  41  31 N15G22    29.59R                  
PRESQUE ISLE   FAIR      71  37  28 NW21G33   29.64R                  
FRENCHVILLE    FAIR      68  36  30 N16G32    29.65R                  
CARIBOU        FAIR      70  39  32 N15G23    29.63R                  
$$

NHZ002-005-008-009-011-012-014-232300-
NEW HAMPSHIRE
  
CITY           SKY/WX    TMP DP  RH WIND       PRES   REMARKS
PORTSMOUTH     MOSUNNY   83  45  26 W14G23    29.72S                  
ROCHESTER      FAIR      82  47  29 NW10G22   29.74S                  
NASHUA         FAIR      84  53  34 VRB7G18   29.77F                  
MANCHESTER     PTSUNNY   85  46  25 NW13G24   29.75F                  
CONCORD        FAIR      83  47  28 NW17      29.76F                  
LACONIA        FAIR      80  46  30 W13G18    29.76F                  
PLYMOUTH       FAIR      80  44  27 W13G18    29.76S                  
BERLIN         FAIR      77  47  34 NW9       29.76S                  
WHITEFIELD     FAIR      76  46  34 NW14G23   29.78S                  
JAFFREY        FAIR      81  47  30 W14G20    29.83F                  
KEENE          FAIR      82  53  36 W7        29.81F                  
LEBANON        FAIR      83  46  27 NW14G20   29.78F                  
MT WASHINGTON  MOSUNNY   48  39  71 NW60G67     N/A                   
$$

VTZ005-007-008-232300-
VERMONT
  
CITY           SKY/WX    TMP DP  RH WIND       PRES   REMARKS
ST JOHNSBURY     N/A     77  43  29 MISG      29.77S                  
MONTPELIER     FAIR      76  46  34 NW14G22   29.86S                  
BURLINGTON     FAIR      82  45  27 NW15      29.81S                  
$$

MAZ007-012-024-CTZ003-RIZ002-NYZ038-NYZ072-232300-
SOUTHERN NEW ENGLAND AND NY
  
CITY           SKY/WX    TMP DP  RH WIND       PRES   REMARKS
BOSTON         CLOUDY    87  49  26 W13       29.76F                  
WORCESTER      FAIR      78  53  41 W16       29.84S                  
NANTUCKET      FAIR      69  57  65 W17G25    29.82S                  
PROVIDENCE     FAIR      84  57  39 W13       29.81S                  
HARTFORD       FAIR      84  51  31 W14       29.83F                  
ALBANY         FAIR      81  53  37 W18G24    29.86S                  
NEW YORK CITY  FAIR      86  48  26 W7        29.88S                  
$$

ANZ081-ANZ082-ANZ150-NHZ014-MEZ023>029-232300-
COASTAL MARINE OBSERVATIONS
  
STATION/POSITION TIME  TEMP    WIND        PRES    WAVE
                       AIR SEA DIR/SP/G            HT/PER
                 (UTC) (F)     (DEG/KT/KT) (MB)    (FT/S)
ISLE OF SHOALS   2100   80     270/ 21/ 22 1005.9F
JEFFREYS LEDGE   2138      59                N/A     1/ 3
$$

.............KEY..............
   WCI - WIND CHILL
   TC  - TEMPERATURE IN CELSIUS
   VSB - VISIBILITY IN MILES
   HX  - HEAT INDEX
   FAIR- INDICATES FEW OR NO CLOUDS BELOW 12,000 FT, WITH NO 
         SIGNIFICANT WEATHER AND/OR OBSTRUCTIONS TO VISIBILITY.